星链-31620 (STARLINK-31620 )

导读

STARLINK-31620是美国SpaceX公司星链星座的一颗卫星,于北京时间2024年4月10日发射,属于二代星链V2.0 Mini卫星,单星发射质量约790千克,通信容量可达165Gb/s,设计寿命超5年。它被送入近地轨道后,将通过电推变轨至工作轨道,助力星链为全球提供高速低延迟卫星互联网服务,尤其覆盖偏远地区。

Basic Information
目录编号:
59460
目录名称:
STARLINK-31620
国际标识:
2024-068F
轨道中心:
EARTH
卫星名称:
星链-31620
卫星全名:
星链-31620 (STARLINK-31620 )
卫星状态:
在轨 (已飞行884 天)
发射日期:
2024-04-10 UTC
国别 :
美国 (US)
星等 :
--
This satellite is enrolled in the Space Conjunction Data Service (SCDS) and the current flight risk assessment level is: No High Risk
Orbit Information
数据来源 国际轨道数据
星历时间: 2026-09-11T03:18:37+0800
1天前
查看轨道信息
半长轴: 6861.178km
偏心率: 0.0000927
轨道倾角: 43.003°
近地点辐角 298.301°
升交点赤经 65.631°
平近点角 61.775°
近地点: 482.404km
远地点: 483.678km
周期: 94.267分钟
每日圈数: 15.27583
Detailed Information
固有亮度:
5
最大亮度:
1.5
卫星平台:
Starlink v2.0 mini
覆盖范围:
全球
运营商:
太空探索技术公司
运营商所在国:
美国
制造商(研发单位):
太空探索技术公司
制造商所在国:
美国
使用方式:
暂无
Satellite Introduction
星链(Starlink)计划是由太空探索技术公司(SpaceX)提出的一个巨型低轨卫星互联网星座项目,计划在2019年至2024年间在太空搭建由约1.2万颗卫星组成的“星链”网络,其中1584颗将部署在地球上空550千米处的近地轨道,并从2020年开始工作。该卫星仍在工作。
2D Orbit Map
3D Orbit Map
Orbit Altitude Analysis Chart
Orbit Inclination Analysis Chart
Orbit Comprehensive Analysis Chart
View Comprehensive Chart
Conjunction Data List
Event ID Objects TCA Miss Dist (km) Collision Risk Probability Collision Risk Index (CRI) Action
CDM_260914-004605-946006-292621
2026-09-14T
00:46:14+0000
0.234 km
中距离
5.422786E-4 高风险 0.9
CDM_260913-150005-946006-648021
2026-09-13T
15:00:47+0000
0.686 km
远距离
5.847669E-5 中风险 0.7
CDM_260913-095105-946006-292621
2026-09-13T
09:51:47+0000
0.735 km
远距离
4.814029E-5 中风险 0.69
CDM_260913-213505-946006-340521
2026-09-13T
21:35:13+0000
0.900 km
远距离
2.155963E-5 中风险 0.62
CDM_260913-125705-946006-340521
2026-09-13T
12:57:23+0000
1.115 km
极远距离
1.032852E-5 中风险 0.55
CDM_260913-081705-946006-292621
2026-09-13T
08:17:38+0000
1.327 km
极远距离
6.54576E-6 低风险 0.51
CDM_260913-163405-946006-648021
2026-09-13T
16:34:56+0000
1.669 km
极远距离
3.097977E-6 低风险 0.45
CDM_260913-112305-946006-340521
2026-09-13T
11:23:14+0000
1.702 km
极远距离
2.603321E-6 低风险 0.43
CDM_260913-231205-946006-292621
2026-09-13T
23:12:05+0000
1.940 km
极远距离
2.076648E-6 低风险 0.41
CDM_260913-132605-946006-648021
2026-09-13T
13:26:37+0000
2.065 km
极远距离
1.754753E-6 低风险 0.4
Miss Distance Evolution Trend with All Objects
Collision Probability Evolution Trend with All Objects